EA5SW-13 Weather Reports


time (UTC)temp
C
wind
direction
speed
KPH
gust
KPH
rain 1hr
cm
rain 24hr
cm
rain mn
cm
humidity
%
barometer
mb
20260510221446 18 0.0 1.6 0.00 0.00 0.00 57
20260510220452 -17 0.0 0.0 0.00 0.00 0.00
20260510215425 19 0.0 1.6 0.00 0.00 0.00 57
20260510214510 19 0 0.0 3.2 0.00 0.00 0.00 58
20260510213425 19 0.0 1.6 0.00 0.00 0.00 59
20260510212450 19 0.0 1.6 0.00 0.00 0.00 57
20260510211427 20 0.0 1.6 0.00 0.00 0.00 54
20260510210449 20 0.0 1.6 0.00 0.00 0.00 52
20260510205425 20 0.0 1.6 0.00 0.00 0.00 52
20260510204449 20 0.0 1.6 0.00 0.00 0.00 52
20260510203425 20 0.0 1.6 0.00 0.00 0.00 51
20260510203115 20 0.0 1.6 0.00 0.00 0.00 51
20260510201649 20 315 0.0 3.2 0.00 0.00 0.00 51
20260510200625 -17 0.0 0.0 0.00 0.00 0.00
20260510195709 20 0.0 1.6 0.00 0.00 0.00 51
20260510194625 20 0.0 1.6 0.00 0.00 0.00 51
20260510193512 20 0.0 1.6 0.00 0.00 0.00 51
20260510191825 21 0.0 1.6 0.00 0.00 0.00 50
20260510190848 21 0.0 0.0 0.00 0.00 0.00 50
20260510183825 23 0 1.6 3.2 0.00 0.00 0.00 46
20260510183112 22 0.0 1.6 0.00 0.00 0.00 47
20260510181825 22 330 3.2 4.8 0.00 0.00 0.00 47
20260510180849 23 315 1.6 3.2 0.00 0.00 0.00 49
20260510175913 23 0.0 1.6 0.00 0.00 0.00 50
20260510174937 23 315 3.2 3.2 0.00 0.00 0.00 51
20260510173825 23 0.0 1.6 0.00 0.00 0.00 55
20260510172849 23 0.0 1.6 0.00 0.00 0.00 57
20260510171825 24 0.0 1.6 0.00 0.00 0.00 60
20260510171337 23 0.0 1.6 0.00 0.00 0.00 62
20260510165826 23 0.0 0.0 0.00 0.00 0.00 62
20260510164849 23 0.0 0.0 0.00 0.00 0.00 60
20260510163846 24 0.0 1.6 0.00 0.00 0.00 59
20260510162849 25 0.0 1.6 0.00 0.00 0.00 53
20260510161826 27 0.0 1.6 0.00 0.00 0.00 50
20260510160958 -17 0.0 0.0 0.00 0.00 0.00
20260510155825 27 0.0 1.6 0.00 0.00 0.00 48
20260510154849 27 0.0 1.6 0.00 0.00 0.00 48
20260510153649 27 0.0 1.6 0.00 0.00 0.00 51
20260510152625 27 315 1.6 3.2 0.00 0.00 0.00 43
20260510151649 28 0.0 1.6 0.00 0.00 0.00 39
20260510150625 28 270 1.6 3.2 0.00 0.00 0.00 35
20260510145709 28 0.0 1.6 0.00 0.00 0.00 37
20260510144625 28 0.0 1.6 0.00 0.00 0.00 42
20260510143649 27 45 0.0 3.2 0.00 0.00 0.00 41
20260510142625 28 0.0 3.2 0.00 0.00 0.00 35
20260510141649 28 293 0.0 3.2 0.00 0.00 0.00 33
20260510140714 28 0 1.6 3.2 0.00 0.00 0.00 34
20260510135650 28 315 0.0 3.2 0.00 0.00 0.00 36
20260510134645 28 315 1.6 3.2 0.00 0.00 0.00 38
20260510133737 27 0.0 1.6 0.00 0.00 0.00 43
20260510132646 26 0.0 1.6 0.00 0.00 0.00 44
20260510131649 25 0.0 1.6 0.00 0.00 0.00 44
20260510130626 27 0.0 3.2 0.00 0.00 0.00 39
20260510125649 27 293 0.0 3.2 0.00 0.00 0.00 39
20260510124625 28 0.0 1.6 0.00 0.00 0.00 40
20260510123650 27 0.0 1.6 0.00 0.03 0.00 41
20260510122625 27 0.0 1.6 0.00 0.05 0.00 44
20260510121650 25 0.0 1.6 0.00 0.10 0.00 45
20260510120626 25 0.0 1.6 0.00 0.13 0.00 45
20260510115649 25 0.0 3.2 0.00 0.15 0.00 45
20260510114626 26 0.0 1.6 0.00 0.20 0.00 47
20260510113649 25 0.0 1.6 0.00 0.23 0.00 46
20260510112625 25 0 1.6 3.2 0.00 0.28 0.00 45
20260510111649 24 0.0 3.2 0.00 0.30 0.00 50
20260510110626 23 0.0 1.6 0.00 0.33 0.00 51
20260510105826 23 0.0 0.0 0.00 0.33 0.00 52
20260510104850 23 0.0 1.6 0.00 0.38 0.00 53
20260510103914 22 0.0 1.6 0.00 0.46 0.00 57
20260510102849 21 0.0 0.0 0.00 0.51 0.00 54
20260510101827 21 0.0 1.6 0.00 0.53 0.00 54
20260510100930 20 0.0 1.6 0.00 0.56 0.00 55
20260510095846 20 0.0 1.6 0.00 0.64 0.00 55
20260510094849 20 0.0 1.6 0.00 0.69 0.00 55
20260510093826 20 0.0 1.6 0.00 0.76 0.00 57
20260510092851 19 0.0 1.6 0.00 0.79 0.00 59
20260510091825 19 0.0 1.6 0.00 0.84 0.00 60
20260510090850 19 0.0 1.6 0.00 0.94 0.00 61
20260510085650 18 0.0 1.6 0.00 1.02 0.00 63
20260510084626 18 0.0 0.0 0.00 1.04 0.00 65
20260510083651 18 0.0 1.6 0.00 1.14 0.00 67
20260510082626 18 0.0 1.6 0.00 1.22 0.00 70
20260510081650 17 0.0 1.6 0.00 1.30 0.00 70
20260510080626 17 0.0 1.6 0.00 1.32 0.00 72
20260510075650 17 0.0 1.6 0.00 1.35 0.00 76
20260510074626 17 0.0 1.6 0.00 1.35 0.00 79
20260510073651 16 0.0 0.0 0.00 1.35 0.00 81
20260510072714 16 0.0 0.0 0.00 1.35 0.00 83
20260510071758 16 0.0 1.6 0.00 1.35 0.00 86
20260510070627 16 0.0 0.0 0.00 1.35 0.00 88
20260510065655 15 0.0 0.0 0.00 1.35 0.00 90
20260510064716 15 0.0 1.6 0.00 1.35 0.00 94
20260510063740 15 0.0 1.6 0.00 1.35 0.00 97
20260510062626 14 0.0 1.6 0.00 1.35 0.00 97
20260510061651 14 0.0 1.6 0.00 1.35 0.00 97
20260510060734 -17 0.0 0.0 0.00 1.35 0.00
20260510055800 13 0.0 0.0 0.00 1.35 0.00 96
20260510054647 13 0.0 0.0 0.00 1.35 0.00 96
20260510053652 13 0.0 0.0 0.00 1.35 0.00 96
20260510052626 13 0.0 0.0 0.00 1.35 0.00 96
20260510051652 13 0.0 0.0 0.00 1.35 0.00 95
20260510050626 13 0.0 0.0 0.00 1.35 0.00 95
20260510045426 13 0.0 0.0 0.00 1.35 0.00 95
20260510044450 13 0.0 0.0 0.00 1.35 0.00 95
20260510043447 13 0.0 0.0 0.00 1.35 0.00 95
20260510042451 13 0.0 0.0 0.00 1.35 0.00 95
20260510041427 13 0.0 0.0 0.00 1.35 0.00 95
20260510040450 13 0.0 0.0 0.00 1.35 0.00 95
20260510035311 13 0.0 0.0 0.00 1.35 0.00 94
20260510034226 13 0.0 0.0 0.00 1.35 0.00 94
20260510033250 13 0.0 0.0 0.00 1.35 0.00 94
20260510032226 13 0.0 0.0 0.00 1.35 0.00 94
20260510031251 14 0.0 0.0 0.00 1.35 0.00 94
20260510030247 14 0.0 0.0 0.00 1.35 0.00 94
20260510025826 14 0.0 0.0 0.00 1.35 0.00 94
20260510024850 14 0.0 0.0 0.00 1.35 0.00 94
20260510023847 14 0.0 0.0 0.00 1.35 0.00 94
20260510022850 14 0.0 0.0 0.00 1.35 0.00 94
20260510020851 15 0.0 0.0 0.00 1.35 0.00 94
20260510015828 15 0.0 0.0 0.00 1.35 0.00 93
20260510014850 15 0.0 0.0 0.00 1.35 0.00 93
20260510013827 15 0.0 0.0 0.00 1.35 0.00 93
20260510012850 15 0.0 0.0 0.00 1.35 0.00 93
20260510011827 15 0.0 0.0 0.00 1.35 0.00 93
20260510010850 15 0.0 0.0 0.00 1.35 0.00 93
20260510005826 15 0.0 0.0 0.00 1.35 0.00 93
20260510004851 15 0.0 0.0 0.00 1.35 0.00 93
20260510003827 15 0.0 0.0 0.00 1.35 0.00 92
20260510002850 15 0.0 0.0 0.00 1.35 0.00 92
20260510001827 16 0.0 0.0 0.00 1.35 0.00 92
20260510000851 16 0.0 1.6 0.00 1.35 0.00 92
20260509235827 16 0.0 0.0 0.00 1.35 0.00 92
20260509234851 16 0.0 0.0 0.00 1.35 0.00 91
20260509233846 16 0.0 0.0 0.00 1.35 0.00 91
20260509232850 16 0.0 0.0 0.00 1.35 0.00 90
20260509231827 16 0.0 1.6 0.00 1.35 0.00 90
20260509230850 16 0.0 0.0 0.00 1.35 0.00 90
20260509225826 16 0.0 0.0 0.00 1.35 0.00 89